#timestamp,LO_Frequency,Hit,StdDev 
1578776415.6,286046985.1,N
1578776435.4,286046977.6,Y
1578776455.2,286046973.2,P
1578776475.1,286046971.5,N
1578776476.0,286046971.5,N
1578776495.8,286046971.0,N
1578776515.7,286046974.4,N
1578776535.5,286046973.8,N
1578776555.3,286046967.1,Y
1578776575.2,286046984.5,P
1578776595.0,286046977.3,P
1578776595.9,286046977.3,P
1578776615.8,286046973.4,Y
1578776635.6,286046992.5,P
1578776655.4,286046986.3,N
1578776675.3,286046999.4,N
1578776695.1,286046999.0,N
1578776715.8,286047000.9,N
1578776735.7,286046999.5,N
1578776755.5,286047002.1,N
1578776775.4,286047007.2,N
1578776795.2,286047015.5,N
1578776815.0,286047022.3,N
1578776815.9,286047022.3,N
1578776835.8,286047031.3,N
1578776855.6,286047035.5,N
1578776875.4,286047041.3,N
1578776895.3,286047049.3,N
1578776915.1,286047058.2,N
1578776935.9,286047066.6,Y
1578776955.7,286047051.9,P
1578776975.5,286047056.7,P
1578776995.4,286047056.7,N
1578777015.2,286047051.0,N
1578777035.0,286047048.4,Y
1578777036.0,286047048.4,P
1578777055.8,286046999.5,N
1578777075.6,286046994.5,N
1578777095.5,286046989.7,N
1578777115.3,286046986.8,N
1578777135.1,286046981.1,N
1578777155.9,286046973.5,N
1578777175.7,286046965.9,N
1578777195.6,286046963.1,N
1578777215.4,286046963.8,N
1578777235.2,286046959.4,N
1578777255.1,286046953.9,N
1578777256.0,286046953.9,N
1578777275.8,286046949.7,N
1578777295.6,286046951.6,N
1578777315.5,286046948.0,N
1578777335.3,286046948.9,N
1578777355.2,286046943.5,N
1578777375.9,286046941.1,N
1578777395.7,286046948.4,N
1578777415.6,286046942.5,N
1578777435.4,286046942.2,N
1578777455.2,286046945.3,N
1578777475.1,286046948.8,N
1578777476.0,286046948.8,N
1578777495.8,286046950.8,N
1578777515.7,286046956.9,N
1578777535.5,286046958.1,N
1578777555.3,286046966.2,N
1578777575.2,286046970.9,N
1578777595.0,286046977.3,N
1578777595.9,286046977.3,N
1578777615.8,286046989.6,N
1578777635.6,286046988.7,N
1578777655.4,286046992.7,N
1578777675.3,286046996.5,N
1578777695.1,286046999.7,N
1578777715.9,286047003.8,N
1578777735.7,286047004.4,N
1578777755.5,286047003.8,N
1578777775.4,286047005.7,N
1578777795.2,286047004.8,N
1578777815.0,286047007.6,N
1578777815.9,286047007.6,N
1578777835.8,286047010.7,N
1578777855.6,286047007.7,N
1578777875.5,286047007.1,N
1578777895.3,286047002.9,N
1578777915.1,286047001.6,N
1578777935.9,286047000.2,N
1578777955.7,286046996.6,N
1578777975.6,286046997.9,N
1578777995.4,286046993.7,N
1578778015.2,286046993.3,N
1578778035.1,286046988.6,N
1578778036.0,286046988.6,N
1578778055.8,286046985.9,N
1578778075.7,286046982.1,N
1578778095.5,286046989.6,N
1578778115.3,286046986.1,N
1578778135.2,286046983.8,N
1578778155.0,286046983.7,N
1578778155.9,286046983.7,N
1578778175.7,286046982.9,N
1578778195.6,286046977.8,N
1578778215.4,286046975.8,N
1578778235.3,286046971.1,N
1578778255.1,286046965.4,Y
1578778275.8,286046967.5,P
1578778295.7,286046965.7,N
1578778315.5,286046961.6,N
1578778335.4,286046959.8,Y
1578778355.2,286046994.1,P
1578778375.0,286046995.8,N
1578778375.9,286046995.8,N
1578778395.8,286047001.2,N
1578778415.6,286047002.1,N
1578778435.4,286047002.6,N
1578778455.3,286047001.3,N
1578778475.1,286047004.7,N
1578778495.9,286047003.7,N
1578778515.7,286046997.0,N
1578778535.5,286046997.9,N
1578778555.4,286046993.9,N
1578778575.2,286046992.0,N
1578778595.0,286046997.8,N
1578778595.9,286046997.8,N
1578778615.8,286047001.5,N
1578778635.6,286047002.0,N
1578778655.5,286047003.2,N
1578778675.3,286047002.2,N
1578778695.1,286046999.5,N
1578778715.9,286046993.7,N
1578778735.7,286046996.3,N
1578778755.5,286046991.1,N
1578778775.4,286046990.3,N
1578778795.2,286046997.9,N
1578778815.1,286047000.9,N
1578778816.0,286047000.9,N
1578778835.8,286047003.7,N
1578778855.6,286047006.7,N
1578778875.5,286047012.0,N
1578778895.3,286047016.2,Y
1578778915.2,286047023.7,P
1578778935.9,286047031.2,N
1578778955.7,286047033.2,N
1578778975.6,286047031.5,N
1578778995.4,286047033.9,N
1578779015.2,286047032.2,N
1578779035.1,286047034.2,N
1578779036.0,286047034.2,Y
1578779055.8,286047007.6,P
1578779075.7,286047007.6,N
1578779095.5,286047006.8,N
1578779115.3,286047008.7,N
1578779135.2,286047013.5,N
1578779155.0,286047009.8,N
1578779155.9,286047009.8,N
1578779175.8,286047008.9,N
1578779195.6,286047002.9,N
1578779215.4,286047004.6,N
1578779235.3,286046995.4,N
1578779255.1,286046987.2,N
1578779275.8,286046982.6,N
1578779295.7,286046984.1,N
1578779315.5,286046981.2,N
1578779335.4,286046978.5,N
1578779355.2,286046972.5,N
1578779375.1,286046970.4,N
1578779376.0,286046970.4,N
1578779395.8,286046972.2,N
1578779415.6,286046964.8,N
1578779435.5,286046962.2,N
1578779455.3,286046962.9,N
1578779475.1,286046969.5,N
1578779495.9,286046970.7,N
1578779515.7,286046967.9,N
1578779535.6,286046966.4,N
1578779555.4,286046965.0,N
1578779575.2,286046963.4,N
1578779595.1,286046954.6,N
1578779596.0,286046954.6,N
1578779615.8,286046957.9,N
1578779635.6,286046956.4,N
1578779655.5,286046955.8,N
1578779675.3,286046956.1,N
1578779695.2,286046957.3,N
1578779715.9,286046961.6,N
1578779735.7,286046956.8,N
1578779755.6,286046962.0,N
1578779775.4,286046956.7,Y
1578779795.3,286046987.4,P
1578779815.1,286046994.7,N
1578779816.0,286046994.7,N
1578779835.8,286046997.2,N
1578779855.7,286046993.9,N
1578779875.5,286046994.1,N
1578779895.3,286046995.8,N
1578779915.2,286046995.1,N
1578779935.0,286046995.1,N
1578779935.9,286046995.1,N
1578779955.8,286046992.9,N
1578779975.6,286046992.2,N
1578779995.4,286046991.0,N
